Location: Sankt+Gallen
(47.4262°N, 9.3755°E)
Time: 09:56:04
(UTC+01:00)

ARIANE 6 FM1 Upper Stage - Pass Details

Date: 19 February 2026
Orbit: 523 x 606 km, 62.0° (Epoch: 14 March)

Event Time Altitude Azimuth Distance (km) Brightness Sun altitude
Rises 18:37:30 0° 317° (NW) 2,661 6.7 -8.3°
Reaches altitude 10° 18:39:41 10° 317° (NW) 1,768 5.7 -8.7°
Maximum altitude 18:43:39 86° 232° (SW) 532 2.6 -9.4°
Drops below altitude 10° 18:47:38 10° 140° (SE) 1,773 4.9 -10.0°
Sets 18:49:49 0° 140° (SE) 2,668 5.8 -10.4°
Enters shadow 18:49:54 - 140° (SE) 2,698 5.8 -10.4°
